Location: McFarlands Corners
(41.4117°N, 81.3382°W)
Time: 13:36:20
(UTC+00:00)

Tiros 1 despin weight - Pass Details

Date: 11 November 2024
Orbit: 570 x 610 km, 48.2° (Epoch: 01 December)

Event Time Altitude Azimuth Distance (km) Brightness Sun altitude
Exits shadow 10:26:20 38° 234° (SW) 910 ? -19.5°
Maximum altitude 10:27:59 84° 150° (SSE) 602 ? -19.2°
Drops below altitude 10° 10:32:22 10° 63° (ENE) 1,915 ? -18.4°
Sets 10:34:38 0° 62° (ENE) 2,810 ? -18.0°
